User: anonymous   Login
Location: Kuppenheim
(48.8299°N, 8.2568°E)
Time: 16:29:41
(UTC+00:00)
Language:

UNK - Orbit

View from above orbital plane
View from above orbital plane
View from above satellite
View from above satellite

Ground track
Ground track

The orbit data is extracted from the following two-line orbital elements,

1 27940U 03042B   21258.91769385  .00000090  00000-0  25780-4 0  9992
2 27940  98.1737  31.3240 0015124  59.1522 301.1166 14.65274392960128
Epoch (UTC): 15 September 2021 22:01:28
Eccentricity: 0.0015124
inclination: 98.1737°
perigee height: 665 km
apogee height: 687 km
right ascension of ascending node: 31.3240°
argument of perigee: 59.1522°
revolutions per day: 14.65274392
mean anomaly at epoch: 301.1166°
orbit number at epoch: 96012

The dashed part of the orbit path shows where the satellite is in the earth's shadow,  

DLR